TimePST,TemperatureF,Dew PointF,Humidity,Sea Level PressureIn,VisibilityMPH,Wind Direction,Wind SpeedMPH,Gust SpeedMPH,PrecipitationIn,Events,Conditions,WindDirDegrees,DateUTC
12:42 AM,41.0,37.9,89,30.17,5.0,Calm,Calm,-,0.04,Rain,Rain,0,2013-11-07 08:42:00
12:56 AM,39.9,37.9,93,30.19,5.0,Calm,Calm,-,0.07,Rain,Light Rain,0,2013-11-07 08:56:00
1:06 AM,41.0,37.9,89,30.16,6.0,Calm,Calm,-,0.01,Rain,Light Rain,0,2013-11-07 09:06:00
1:37 AM,41.0,37.9,89,30.15,5.0,Calm,Calm,-,0.03,Rain,Light Rain,0,2013-11-07 09:37:00
1:45 AM,41.0,37.9,89,30.15,6.0,Calm,Calm,-,0.04,Rain,Light Rain,0,2013-11-07 09:45:00
1:56 AM,41.0,37.9,89,30.17,10.0,Calm,Calm,-,0.04,Rain,Light Rain,0,2013-11-07 09:56:00
2:56 AM,41.0,37.9,89,30.14,10.0,Calm,Calm,-,0.02,Rain,Light Rain,0,2013-11-07 10:56:00
3:56 AM,41.0,39.0,93,30.12,7.0,Calm,Calm,-,0.02,Rain,Light Rain,0,2013-11-07 11:56:00
4:56 AM,42.1,39.0,89,30.09,10.0,Variable,3.5,-,0.02,,Overcast,0,2013-11-07 12:56:00
5:07 AM,42.1,39.0,89,30.04,10.0,Calm,Calm,-,N/A,,Overcast,0,2013-11-07 13:07:00
5:56 AM,42.1,39.0,89,30.06,10.0,Calm,Calm,-,0.00,,Overcast,0,2013-11-07 13:56:00
6:56 AM,42.1,39.0,89,30.03,10.0,Calm,Calm,-,N/A,,Overcast,0,2013-11-07 14:56:00
7:56 AM,42.1,39.0,89,30.02,10.0,Calm,Calm,-,N/A,,Partly Cloudy,0,2013-11-07 15:56:00
8:56 AM,43.0,39.0,86,30.01,10.0,Calm,Calm,-,N/A,,Overcast,0,2013-11-07 16:56:00
9:56 AM,43.0,39.0,86,29.97,10.0,Calm,Calm,-,N/A,,Overcast,0,2013-11-07 17:56:00
10:56 AM,43.0,39.9,89,29.92,10.0,Calm,Calm,-,0.00,Rain,Light Rain,0,2013-11-07 18:56:00
11:56 AM,45.0,39.9,82,29.88,10.0,Calm,Calm,-,0.00,,Overcast,0,2013-11-07 19:56:00
12:56 PM,44.1,39.9,85,29.85,10.0,Calm,Calm,-,N/A,,Overcast,0,2013-11-07 20:56:00
1:41 PM,44.1,41.0,89,29.88,1.5,West,11.5,24.2,0.04,Rain,Heavy Rain,280,2013-11-07 21:41:00
1:49 PM,39.9,37.0,89,29.89,1.0,West,8.1,25.3,0.14,Rain,Heavy Rain,280,2013-11-07 21:49:00
1:56 PM,39.9,37.0,89,29.93,1.2,Variable,4.6,-,0.18,Rain,Heavy Rain,0,2013-11-07 21:56:00
2:05 PM,39.0,36.0,89,29.90,1.5,Variable,4.6,17.3,0.04,Rain,Rain,0,2013-11-07 22:05:00
2:16 PM,39.0,36.0,89,29.89,2.5,Variable,4.6,-,0.07,Rain,Rain,0,2013-11-07 22:16:00
2:36 PM,39.0,36.0,89,29.89,1.8,Variable,5.8,-,0.13,Rain,Rain,0,2013-11-07 22:36:00
2:45 PM,39.9,37.0,89,29.89,2.0,Variable,3.5,-,0.16,Rain,Rain,0,2013-11-07 22:45:00
2:56 PM,39.9,36.0,86,29.92,3.0,Variable,5.8,16.1,0.19,Rain,Light Rain,0,2013-11-07 22:56:00
3:03 PM,39.9,36.0,86,29.89,5.0,West,4.6,-,0.00,Rain,Rain,260,2013-11-07 23:03:00
3:25 PM,39.9,37.0,89,29.90,10.0,Variable,5.8,-,0.01,Rain,Light Rain,0,2013-11-07 23:25:00
3:56 PM,39.9,36.0,86,29.93,10.0,Variable,4.6,-,0.01,,Mostly Cloudy,0,2013-11-07 23:56:00
4:56 PM,37.9,33.1,83,29.94,10.0,Calm,Calm,-,N/A,,Clear,0,2013-11-08 00:56:00
5:56 PM,37.9,30.9,76,29.97,10.0,Calm,Calm,-,N/A,,Clear,0,2013-11-08 01:56:00
6:56 PM,39.0,28.9,67,29.97,10.0,Variable,5.8,-,N/A,,Overcast,0,2013-11-08 02:56:00
7:56 PM,39.0,28.0,65,29.98,10.0,Variable,3.5,-,N/A,,Clear,0,2013-11-08 03:56:00
8:56 PM,39.9,28.0,63,29.99,10.0,North,-9999.0,-,N/A,,Mostly Cloudy,0,2013-11-08 04:56:00
9:56 PM,39.9,27.0,60,30.00,10.0,Variable,3.5,-,N/A,,Overcast,0,2013-11-08 05:56:00
10:56 PM,39.9,28.0,63,30.00,10.0,Variable,5.8,-,N/A,,Overcast,0,2013-11-08 06:56:00
11:56 PM,39.9,28.9,65,30.01,10.0,Variable,3.5,-,N/A,,Overcast,0,2013-11-08 07:56:00